This demonstration page uses our WeatherBlox Daily Observations layout. Learn more.

Left ArrowRight Arrow

44.89941, -97.11507

Hourly Observations for August 10, 2016

Temp ( °F °C ) Dew Point ( °F °C ) Humidity (%) Winds ( mph kmh ) Pressure ( in mb ) Visibility ( mi km ) Precip ( " mm )
12:53 am 00:53 Clear 77 25 73 22.8 88 88 SSE 13 20 29.87 1012 10 16 0.00 0.00
1:53 am 01:53 Clear 76 24.4 72 22.2 88 88 SSE 15 24 29.85 1011 10 16 0.00 0.00
2:53 am 02:53 Clear 75 23.9 72 22.2 90 90 SSE 13 20 29.85 1011 10 16 0.00 0.00
3:53 am 03:53 Clear 75 23.9 73 22.8 94 94 SSE 9 15 29.85 1011 10 16 0.00 0.00
4:53 am 04:53 Partly Cloudy 75 23.9 72 22.2 90 90 SE 6 9 29.87 1012 10 16 0.00 0.00
5:02 am 05:02 Mostly Cloudy 75 23.9 72 22.2 90 90 SE 8 13 29.85 1011 10 16 0.00 0.00
5:37 am 05:37 Cloudy 72 22.2 68 20 87 87 ENE 15 24 29.88 1012 10 16 0.00 0.00
5:53 am 05:53 Cloudy 70 21.1 64 17.8 82 82 NE 12 19 29.91 1013 10 16 0.00 0.00
6:15 am 06:15 Cloudy 68 20 63 17.2 84 84 NE 13 20 29.91 1013 10 16 0.00 0.00
6:49 am 06:49 Cloudy 66 19 64 18 94 94 ENE 16 26 29.94 1014 10 16 0.00 0.00
6:53 am 06:53 Cloudy 67 19.4 64 17.8 91 91 ENE 15 24 29.92 1013 10 16 0.00 0.00
7:01 am 07:01 Cloudy 67 19.4 64 17.8 91 91 ENE 13 20 29.91 1013 10 16 0.00 0.00
7:43 am 07:43 Cloudy 68 20 64 17.8 87 87 E 13 20 29.94 1014 10 16 0.00 0.00
7:53 am 07:53 Cloudy 68 20 64 17.8 87 87 E 14 22 29.93 1014 10 16 0.00 0.00
8:53 am 08:53 Cloudy 69 20.6 63 17.2 81 81 E 16 26 29.91 1013 10 16 0.00 0.00
9:53 am 09:53 Cloudy 73 22.8 64 17.8 74 74 ESE 16 26 29.89 1012 10 16 0.00 0.00
10:46 am 10:46 Partly Cloudy 77 25 66 18.9 69 69 SE 17 28 29.83 1010 10 16 0.00 0.00
10:53 am 10:53 Mostly Sunny 77 25 66 18.9 69 69 ESE 16 26 29.88 1012 10 16 0.00 0.00
11:28 am 11:28 Mostly Cloudy 79 26.1 70 21.1 74 74 SE 13 20 29.83 1010 10 16 0.00 0.00
11:53 am 11:53 Cloudy 81 27.2 71 21.7 72 72 SE 13 20 29.87 1011 10 16 0.00 0.00
12:53 pm 12:53 Mostly Cloudy 85 29.4 73 22.8 68 68 SSE 13 20 29.84 1010 10 16 0.00 0.00
1:00 pm 13:00 Partly Cloudy 86 30 73 22.8 65 65 SSE 16 26 29.77 1008 10 16 0.00 0.00
1:41 pm 13:41 Mostly Cloudy 88 31.1 75 23.9 66 66 SSE 14 22 29.77 1008 10 16 0.00 0.00
1:53 pm 13:53 Mostly Cloudy 89 31.7 76 24.4 65 65 SSE 15 24 29.82 1010 10 16 0.00 0.00
2:53 pm 14:53 Partly Cloudy 91 32.8 74 23.3 57 57 SSE 15 24 29.83 1010 10 16 0.00 0.00
3:53 pm 15:53 Mostly Cloudy 91 32.8 71 21.7 52 52 S 16 26 29.80 1009 10 16 0.00 0.00
4:53 pm 16:53 Mostly Cloudy 92 33.3 73 22.8 54 54 SSE 15 24 29.77 1008 10 16 0.00 0.00
5:53 pm 17:53 Sunny 92 33.3 72 22.2 52 52 S 16 26 29.76 1008 10 16 0.00 0.00
6:03 pm 18:03 Sunny with Nearby Thunderstorms 91 32.8 72 22.2 54 54 SSW 10 17 29.71 1006 10 16 0.00 0.00
6:24 pm 18:24 Mostly Cloudy with Nearby Thunderstorms 74 23.3 65 18.3 74 74 NNE 21 33 29.77 1008 10 16 0.00 0.00
6:53 pm 18:53 Mostly Cloudy 75 23.9 67 19.4 76 76 ENE 15 24 29.81 1010 10 16 0.00 0.00
7:53 pm 19:53 Sunny 76 24.4 67 19.4 74 74 ESE 9 15 29.77 1008 10 16 0.00 0.00
8:53 pm 20:53 Clear 73 22.8 64 17.8 74 74 E 12 19 29.79 1009 10 16 0.00 0.00
9:53 pm 21:53 Mostly Cloudy 74 23.3 62 16.7 67 67 E 8 13 29.79 1009 10 16 0.00 0.00
10:53 pm 22:53 Cloudy 76 24.4 63 17.2 64 64 E 7 11 29.80 1009 10 16 0.00 0.00
11:07 pm 23:07 Cloudy with Nearby Thunderstorms 76 24.4 65 18.3 69 69 E 6 9 29.71 1006 10 16 0.00 0.00
11:22 pm 23:22 Mostly Cloudy 76 24.4 66 18.9 72 72 E 5 7 29.74 1007 10 16 0.00 0.00
11:53 pm 23:53 Mostly Cloudy with Nearby Thunderstorms 75 23.9 67 19.4 76 76 ENE 6 9 29.82 1010 10 16 0.00 0.00

Powered by AerisWeather